Vorticity
7 7 7 7 7 7 7 7 7 8 7 7 7 7 7 6 6 6 6 5 5 4 4 3 3 2 2 2 1 1 1 1 1 0 1 1 1 1 2 2 2 3 4 5 6 7 8 8 8 8 9 10 10 10 9 7 5 4 3 2 1 0 -1 -0 0 1 2 3 3 4 4 5 5 5 5 5 5 5 6 6 8 8 9 8 7 6 4 2 1 -1 -2 -3 -2 -0 2 4 5 4 3 1 -0 -1 0
7 7 7 8 8 8 8 8 8 8 8 7 7 7 7 7 6 6 6 6 6 5 5 5 4 4 4 3 3 3 2 2 2 2 1 1 1 1 1 1 1 2 2 3 4 5 7 8 8 8 8 9 9 10 11 11 8 6 4 3 2 1 0 -0 -0 0 1 2 2 3 4 4 4 5 5 5 5 5 5 5 6 7 8 9 8 8 7 5 3 1 -1 -2 -3 -2 -0 2 4 5 5 3 2 0 -0
7 7 7 7 7 7 7 7 7 7 6 6 6 6 6 6 6 6 6 6 6 6 6 6 6 5 5 5 5 5 5 4 4 4 4 3 3 2 2 2 2 1 1 1 2 3 4 6 7 8 9 9 9 9 10 11 11 10 6 4 3 2 2 0 -0 -0 0 1 2 2 3 3 4 4 4 5 5 5 5 5 5 6 7 8 8 8 8 7 5 3 1 -1 -2 -3 -2 -0 2 4 5 5 4 2 1
7 7 6 6 6 6 5 5 5 5 5 4 4 4 4 4 4 4 4 4 5 5 5 5 6 6 6 6 6 7 7 7 7 6 6 6 5 5 4 4 3 2 2 2 1 1 2 3 4 6 8 9 10 10 9 10 11 12 10 8 5 4 2 2 1 0 0 0 1 2 2 2 3 3 4 4 5 5 5 5 5 6 6 7 7 8 8 8 7 6 3 1 -1 -2 -3 -2 -1 1 4 5 5 4 3
6 5 5 4 4 4 4 4 3 3 3 3 3 3 4 4 4 4 4 4 4 4 5 5 5 6 6 7 7 8 8 9 9 9 9 9 8 8 7 6 5 4 4 3 2 2 2 2 2 3 4 7 9 10 10 9 10 10 11 10 9 6 4 3 2 1 1 1 1 1 2 2 2 3 3 3 4 4 5 5 5 5 6 6 6 7 7 8 8 7 6 4 1 -1 -2 -3 -2 -1 1 3 4 5 4
4 4 4 3 3 3 3 3 3 3 3 3 3 3 3 3 3 4 4 4 4 4 5 5 5 6 6 7 7 8 9 9 10 10 11 11 11 10 10 9 8 7 6 5 4 4 3 3 2 2 2 4 6 8 10 10 10 10 10 11 11 10 7 5 3 2 2 1 1 1 1 2 2 2 2 3 3 4 4 5 5 5 5 5 6 6 6 7 8 8 8 6 4 2 -0 -2 -2 -2 -1 1 3 4 4
3 3 3 3 3 3 3 3 3 3 3 3 3 3 3 4 4 4 4 4 4 4 4 5 5 5 5 5 5 6 6 6 7 8 8 9 10 10 11 11 11 11 10 8 7 7 6 5 4 3 2 2 3 4 6 8 10 10 10 10 10 10 10 8 6 4 2 2 1 1 1 1 2 2 2 2 3 3 4 4 5 5 5 5 5 5 5 6 7 8 9 8 6 4 2 0 -1 -2 -2 -1 1 2 4
3 3 3 4 4 4 4 4 4 4 4 4 4 4 4 4 4 4 4 4 4 4 4 4 4 4 4 3 3 2 2 2 2 2 2 2 3 4 5 6 8 9 10 10 10 9 9 8 7 6 5 4 4 4 4 6 8 9 10 10 10 10 11 10 9 7 4 3 2 1 1 1 1 2 2 2 2 2 3 4 4 5 5 5 5 5 5 5 6 7 8 9 8 7 5 3 1 -1 -2 -2 -1 0 2
4 4 4 4 4 4 4 4 4 4 4 4 4 4 4 4 4 4 5 5 4 4 4 4 4 4 4 3 3 2 2 1 1 0 -0 -0 -0 -0 -0 0 1 2 3 5 6 7 8 8 8 7 7 6 6 5 5 5 5 7 8 10 11 11 10 11 11 10 8 5 3 2 1 1 1 1 2 2 2 2 2 3 3 4 4 5 5 5 5 5 5 6 7 8 8 8 7 5 3 1 -0 -1 -2 -1 0
4 4 4 4 4 4 4 5 5 5 5 5 5 5 5 5 5 5 5 5 5 5 5 5 5 5 5 4 4 4 4 3 3 2 2 1 1 0 -0 -0 -0 -1 -0 0 1 2 3 4 5 6 6 6 6 6 6 6 5 5 6 8 9 11 11 11 11 11 11 8 6 4 2 1 1 1 1 2 2 2 2 2 3 3 4 4 5 5 5 5 5 5 6 7 8 8 8 7 5 4 2 -0 -1 -2 -1
4 4 5 5 5 5 5 5 5 5 5 5 6 6 6 6 6 6 6 6 6 6 6 5 5 5 5 5 4 4 4 4 4 3 3 2 2 2 1 1 0 0 0 -0 -0 -0 -0 0 1 2 3 4 4 5 6 6 6 6 6 6 7 9 10 11 11 11 12 11 9 7 4 2 1 1 1 2 2 2 2 2 2 3 3 4 4 5 5 5 5 5 5 6 7 7 8 8 7 6 4 2 0 -1 -2
5 5 5 5 5 5 5 5 6 6 6 6 6 6 6 6 6 6 6 6 6 5 5 5 4 4 4 4 4 3 3 3 3 2 2 2 2 2 1 1 1 1 0 0 -0 -0 -0 -0 -0 -0 0 1 1 2 3 4 5 5 6 6 6 6 8 9 10 11 12 12 12 10 7 4 2 1 1 1 2 2 2 2 2 2 3 3 4 4 4 5 5 5 5 5 6 6 7 7 7 7 6 4 2 0 -1
5 5 5 5 6 6 6 6 6 6 6 6 6 6 6 6 6 6 6 5 5 5 4 4 4 3 3 3 2 2 2 2 2 1 1 1 1 2 2 2 2 2 1 1 1 0 0 0 -0 -0 -1 -0 -0 0 1 1 2 3 4 4 5 5 6 7 8 10 10 12 13 12 11 8 5 3 1 1 2 2 2 2 2 2 2 3 3 4 4 4 5 5 5 5 5 6 6 7 7 7 7 6 4 2 0
5 5 6 6 6 6 6 6 6 6 6 6 6 6 6 6 6 5 5 5 4 4 4 4 3 3 3 2 2 2 1 1 1 1 1 1 2 2 2 2 2 2 2 2 2 2 2 1 1 0 0 -0 -0 -0 -0 0 0 1 1 2 3 4 4 5 6 7 8 10 12 13 13 11 8 6 3 2 1 2 2 2 2 2 2 3 3 3 4 4 4 4 5 5 5 5 5 6 6 7 7 7 6 4 2
6 6 6 6 6 6 6 6 6 6 6 6 6 6 6 5 5 5 4 4 4 4 4 4 4 4 3 3 2 2 2 1 2 2 2 2 2 2 3 3 3 3 3 3 3 3 3 3 2 2 2 1 0 0 0 0 0 0 0 1 1 2 3 4 4 5 6 8 10 12 13 13 11 9 6 3 2 1 2 2 2 2 2 2 3 3 3 3 4 4 4 5 5 5 5 5 6 6 7 7 7 6 4
6 6 6 6 6 7 7 7 6 6 6 6 6 6 5 5 4 4 4 4 4 4 4 4 3 3 3 3 2 2 2 2 2 2 2 3 3 3 4 4 4 4 4 4 4 4 4 4 4 3 3 2 2 2 1 1 0 0 0 1 1 1 1 2 2 3 4 5 7 9 11 13 13 12 10 6 4 2 1 2 2 2 2 2 2 3 3 3 3 3 4 4 5 5 5 5 5 5 6 7 7 7 6
6 6 6 7 7 7 7 7 6 6 6 6 5 5 4 4 4 4 4 3 3 3 2 2 2 2 2 2 2 2 2 2 2 2 3 3 4 4 4 4 4 4 4 4 4 4 4 4 4 4 4 4 4 3 2 2 1 1 1 1 1 1 1 1 1 1 2 3 4 6 8 11 13 13 12 10 7 4 2 2 2 2 2 2 2 2 3 3 3 3 3 3 4 4 5 5 5 5 5 6 7 8 8
6 7 7 7 7 7 7 6 6 6 6 5 5 4 4 3 3 3 2 2 2 1 0 0 -0 0 0 1 1 2 2 2 2 3 3 4 4 5 6 6 6 6 6 6 6 5 5 5 5 5 5 5 5 4 4 3 2 2 2 2 2 2 2 1 0 0 1 2 2 4 5 7 10 13 13 12 10 7 4 2 2 2 2 3 3 2 2 3 3 3 3 3 3 4 4 5 5 5 5 5 6 7 8
7 7 7 7 7 7 6 6 6 5 5 4 4 4 3 3 3 2 2 1 1 0 -0 -0 -0 -0 0 1 1 2 2 3 3 4 4 5 6 6 7 7 8 8 8 8 8 8 7 7 6 6 6 6 6 6 5 4 4 4 3 3 3 2 2 2 1 0 -0 0 1 2 3 4 7 10 12 13 12 10 7 4 2 2 2 2 3 3 2 3 3 3 3 3 3 3 4 4 5 5 5 5 5 6 7
7 7 7 7 7 6 6 6 5 5 4 4 4 4 4 3 3 2 2 1 1 0 0 0 0 1 1 2 2 2 3 4 5 6 6 7 7 8 8 9 10 10 10 11 11 10 10 10 9 8 8 8 7 7 6 6 6 5 4 4 4 4 3 3 2 1 0 -0 -0 0 1 2 4 6 9 11 12 12 11 7 4 2 2 2 3 3 3 2 3 3 3 3 2 2 2 3 4 5 5 5 4 5 6
7 7 7 7 7 6 6 6 5 5 5 5 5 4 4 4 3 2 2 1 1 1 1 2 2 2 2 3 3 4 5 6 7 8 8 9 10 10 11 11 12 12 13 13 13 14 14 13 13 12 11 10 10 9 9 8 7 7 6 6 5 5 4 4 3 3 2 0 -0 -1 -0 1 2 4 5 8 11 12 13 10 7 4 2 2 2 3 3 3 3 3 3 3 3 2 2 2 3 4 5 5 5 4 5
8 8 7 7 7 6 6 6 6 6 6 5 5 4 4 3 2 2 2 2 2 2 2 3 3 3 4 5 6 7 8 10 10 11 12 12 13 13 14 14 15 15 16 16 17 18 18 18 17 16 16 14 13 12 11 11 10 9 8 8 7 6 5 5 5 4 4 2 1 -0 -1 -1 0 2 3 5 8 10 13 12 10 7 4 2 2 3 3 3 3 3 3 3 3 3 2 2 2 3 4 5 5 5 4
8 7 7 7 7 6 6 6 6 6 6 5 4 4 3 2 2 2 2 2 3 3 3 4 4 6 7 8 10 12 13 14 15 16 16 17 18 18 19 19 20 20 21 22 22 23 23 23 23 22 22 20 18 17 15 14 13 13 12 11 10 8 7 6 6 5 5 4 3 1 -0 -1 -1 -0 1 3 5 7 10 12 12 10 7 4 2 2 3 3 3 3 3 3 3 3 2 2 1 2 3 4 5 5 4
7 7 7 7 6 6 6 6 6 6 5 4 3 3 2 2 2 2 3 3 3 4 4 6 7 9 11 13 15 16 17 19 20 21 22 23 24 25 25 27 28 28 28 29 29 29 30 30 30 29 29 27 25 23 21 19 18 17 16 15 13 12 10 9 7 6 6 5 4 3 2 0 -1 -1 -1 1 3 5 7 10 11 11 10 7 4 2 2 3 4 4 3 3 3 3 3 2 2 1 1 2 4 5 5
7 7 6 6 6 6 6 6 5 4 4 3 2 2 2 2 2 3 3 4 4 5 7 9 11 13 15 17 19 20 22 23 25 27 29 30 32 34 34 35 36 37 37 37 37 36 36 36 36 35 35 34 33 31 28 26 23 21 20 20 18 16 14 12 10 8 7 6 6 5 4 2 0 -1 -2 -1 1 2 4 7 9 11 12 10 7 4 2 3 3 4 4 3 3 3 3 3 2 1 1 1 2 4 5
7 6 6 6 6 6 5 5 4 3 2 2 2 2 2 2 3 3 4 5 6 8 10 12 14 17 19 20 22 24 26 29 32 34 36 38 39 40 41 41 42 42 42 42 41 41 40 40 40 39 39 39 38 37 35 33 30 27 25 24 23 22 20 17 15 12 10 8 7 6 5 4 2 0 -2 -2 -1 0 2 4 7 9 11 11 9 6 3 3 3 4 4 4 3 3 3 3 3 2 1 0 1 2 4
6 6 6 6 5 5 4 4 3 2 1 1 1 2 2 3 4 4 5 7 9 11 14 16 18 20 22 24 27 30 33 35 38 40 41 42 42 42 42 41 40 39 39 39 38 38 38 38 38 38 39 39 40 40 39 38 36 34 31 29 28 27 25 23 20 17 14 11 9 7 6 6 4 3 0 -2 -2 -1 0 2 4 6 9 10 10 9 6 4 3 4 4 4 4 3 3 3 3 3 2 1 0 1 2
6 6 5 5 5 4 4 3 2 1 1 1 2 2 3 4 5 6 8 10 12 15 17 20 22 24 26 29 32 35 38 40 41 41 40 38 37 35 34 32 31 29 28 28 28 28 28 29 30 31 32 34 36 37 38 39 38 38 36 34 32 31 30 28 26 23 20 16 13 10 8 7 6 5 3 0 -2 -2 -1 0 2 4 6 9 10 10 8 5 4 3 4 5 4 4 3 3 3 3 3 2 1 0 0
6 5 5 4 4 3 3 2 1 1 1 1 2 3 4 6 7 8 11 13 16 18 21 23 25 28 31 34 37 39 39 38 36 34 31 28 26 24 22 20 19 18 17 17 17 17 18 18 19 20 22 24 26 29 32 34 35 37 37 37 36 34 33 32 31 29 26 22 18 15 12 10 8 6 5 2 -0 -2 -2 -1 0 2 4 6 8 10 10 7 5 3 3 4 5 4 3 3 3 3 4 3 2 0 -0
5 5 5 4 3 3 2 1 1 0 1 2 3 4 6 7 9 11 14 16 19 21 24 26 29 33 36 37 38 37 34 30 27 24 20 18 16 15 14 13 13 13 13 13 13 13 13 14 14 14 15 16 17 19 22 25 28 30 33 35 36 36 35 34 33 32 31 28 24 20 17 14 11 8 6 4 2 0 -1 -1 -1 1 2 4 6 8 10 9 7 4 3 4 5 5 4 3 3 3 4 3 2 2 0
5 4 4 3 3 2 1 1 0 1 2 3 4 6 7 10 12 14 17 19 21 24 27 30 33 36 37 36 33 29 25 21 18 16 13 12 12 12 12 12 13 13 14 14 15 15 15 15 15 14 14 14 14 14 15 17 19 22 24 28 31 34 34 34 34 34 33 32 29 26 22 19 15 12 9 7 5 3 0 -1 -1 0 1 3 4 6 8 9 8 6 4 4 4 5 5 4 3 3 3 4 3 2 1
4 4 4 3 2 1 1 0 0 1 3 4 6 8 10 12 14 17 19 22 24 27 30 33 35 35 33 30 25 21 17 15 13 12 12 12 12 13 13 14 16 17 18 19 20 20 20 20 20 19 18 18 16 16 15 14 15 15 17 20 23 27 31 32 33 34 34 34 33 31 28 24 20 17 13 10 8 6 3 1 0 0 1 2 3 4 6 8 9 8 6 4 4 5 6 5 4 3 3 3 4 3 3
4 4 3 2 2 1 0 0 1 2 4 6 8 10 12 14 17 19 21 24 27 30 32 33 33 30 27 22 18 15 13 12 12 12 12 13 14 16 17 18 20 22 24 25 26 27 27 28 28 27 26 25 23 22 19 17 16 14 14 14 16 20 24 28 30 32 33 34 34 33 32 29 26 22 18 14 11 9 6 4 2 1 1 2 2 3 4 6 8 9 8 6 4 4 5 5 5 4 3 3 4 4 4
4 3 2 2 1 0 0 1 2 4 6 8 10 12 14 16 19 22 24 27 29 31 32 31 28 24 20 17 14 13 12 12 12 13 14 16 18 19 22 24 26 28 30 31 33 34 35 35 36 36 35 34 32 30 27 24 21 18 16 14 14 15 17 21 25 28 31 32 34 34 34 32 29 27 23 20 16 13 10 7 5 3 2 2 2 2 3 5 7 8 9 7 6 4 4 5 5 5 4 3 4 4 4
3 3 2 1 1 0 1 2 3 5 7 10 12 14 16 18 21 23 26 28 30 31 30 27 23 19 16 14 12 12 12 12 13 15 16 19 22 24 26 29 31 32 34 36 37 38 39 39 40 40 40 40 40 38 36 34 30 26 22 18 16 14 14 16 19 22 26 29 31 33 34 34 32 30 27 24 21 17 14 11 8 6 4 2 2 2 2 3 5 7 8 8 7 5 4 5 6 6 5 4 4 4 4
3 2 2 1 0 0 1 3 5 7 9 12 14 16 18 20 22 25 27 29 30 29 26 22 19 16 13 12 12 12 13 13 15 17 20 23 25 28 30 32 33 34 36 36 36 37 37 38 38 39 39 40 41 41 42 41 39 36 31 26 21 18 15 14 15 17 21 24 28 30 32 33 33 32 30 28 25 22 18 15 12 9 6 4 2 2 2 3 4 5 7 8 8 6 5 5 5 6 6 4 4 4 4
3 2 1 1 1 1 2 4 7 9 12 13 15 17 20 22 24 27 28 29 28 26 22 18 16 14 13 12 12 13 14 15 18 20 24 26 28 30 32 33 34 34 34 33 33 33 33 33 33 33 33 34 36 37 39 41 42 42 40 35 30 25 20 17 16 15 16 20 23 26 29 31 32 32 32 30 29 26 23 19 16 13 9 6 4 3 3 3 4 4 6 7 8 7 6 5 5 6 6 5 4 4 4
2 2 1 1 1 2 4 6 8 11 13 15 17 19 21 23 25 28 29 28 25 22 18 16 14 13 12 12 13 14 15 18 20 23 26 28 30 31 32 32 32 31 30 29 28 28 27 26 26 26 26 27 28 29 32 35 38 41 43 42 39 34 29 24 20 17 16 16 18 21 25 28 30 31 31 31 31 29 27 24 20 16 13 10 7 5 4 4 4 4 4 6 7 8 7 5 5 5 6 6 5 4 4
2 2 1 1 2 3 5 8 10 13 15 16 18 20 23 24 26 27 28 25 22 18 16 14 13 13 12 13 13 15 17 20 22 25 27 29 30 31 31 30 29 28 27 25 24 22 22 21 20 20 20 21 21 22 23 26 30 34 38 41 42 41 37 32 27 22 18 16 16 18 20 23 26 28 30 30 31 31 30 27 24 20 17 14 11 8 6 6 5 4 4 5 6 7 8 6 5 5 5 6 6 5 4
2 1 1 1 2 4 7 10 12 14 16 18 20 21 24 25 26 26 26 22 19 16 14 13 13 13 13 13 14 16 18 21 24 26 28 29 29 29 28 27 26 24 23 22 20 19 18 18 18 18 18 18 18 18 19 20 22 25 29 34 38 41 41 39 35 30 24 20 17 16 17 19 22 25 27 29 30 30 31 30 27 24 20 17 14 12 10 7 6 5 4 4 5 6 7 7 6 5 5 6 6 6 5
2 1 1 2 4 6 8 11 14 16 18 19 21 22 24 26 26 25 22 19 17 15 14 13 13 12 12 13 15 17 20 22 25 27 28 28 28 27 26 24 23 22 20 19 18 18 17 17 18 18 18 19 19 19 19 18 19 20 22 26 30 35 38 40 39 36 32 26 21 18 16 16 18 21 24 26 27 28 29 29 28 26 23 20 17 14 12 10 8 6 5 4 4 5 6 7 7 6 5 5 6 6 6
2 2 2 3 5 7 10 13 15 17 19 20 22 23 24 25 25 22 20 17 15 14 13 13 13 12 12 13 16 18 20 23 25 27 27 27 26 25 24 22 21 20 20 19 18 18 18 18 19 20 20 21 22 22 22 21 21 20 20 22 24 27 31 36 39 39 38 33 28 22 18 16 16 17 20 22 25 26 27 28 28 26 24 22 19 16 14 12 10 8 6 5 5 5 6 7 7 6 5 5 6 6 6
2 2 2 4 6 9 12 14 16 18 20 21 22 24 24 24 22 20 18 16 14 13 13 13 13 12 12 14 16 19 21 24 25 26 26 25 24 23 22 21 21 20 20 20 20 20 20 20 21 22 23 24 25 26 26 26 25 25 24 23 22 23 25 29 33 37 40 38 34 29 23 19 16 16 16 19 22 24 26 27 27 27 25 23 20 18 16 13 11 10 8 7 6 6 5 6 7 7 6 5 5 6 7
2 2 3 5 8 10 13 16 18 19 21 22 23 24 24 22 20 18 16 15 14 13 13 13 12 12 13 14 17 19 22 24 25 25 25 24 23 22 21 21 21 20 20 20 20 20 21 22 22 24 25 27 28 29 30 30 30 29 29 27 25 24 22 24 27 31 36 38 38 35 30 24 20 16 15 16 19 22 24 26 27 28 27 25 22 20 18 15 13 11 10 9 8 7 6 6 6 7 7 6 5 6 6
2 3 4 7 9 12 15 17 19 20 22 23 23 23 22 20 18 16 14 14 14 13 12 12 12 13 13 15 17 20 22 24 25 24 24 22 22 21 21 21 21 21 21 21 20 21 21 22 23 25 27 29 31 33 34 34 34 34 33 32 30 27 24 23 23 25 30 35 38 38 35 30 24 19 16 15 16 18 21 24 26 28 28 27 25 23 20 18 16 14 12 12 11 9 8 6 6 6 7 6 6 5 6
3 4 5 8 11 14 16 18 19 21 22 23 23 22 21 18 16 15 14 14 14 13 12 11 11 12 14 16 18 20 22 24 24 23 22 22 21 21 21 21 21 21 21 20 20 20 21 22 24 26 29 32 35 37 39 39 39 38 38 36 34 32 29 25 23 22 24 29 34 37 38 34 29 23 18 16 15 16 18 20 23 25 27 28 27 25 23 21 19 16 15 14 13 12 10 8 6 5 6 6 6 5 5
3 4 6 9 12 15 17 19 20 21 22 23 22 21 19 17 15 14 13 13 13 13 12 10 10 12 14 17 19 21 23 23 23 22 21 21 21 21 21 21 21 20 19 19 20 20 21 23 25 28 31 34 38 41 44 44 44 42 41 40 38 36 33 29 26 23 22 24 29 33 37 36 32 27 22 18 16 15 15 18 20 22 25 27 27 27 25 23 21 19 16 15 15 14 13 10 7 5 5 6 6 6 5
4 6 8 11 14 16 18 20 20 21 22 22 22 20 18 16 14 13 13 13 13 12 11 10 10 12 14 17 20 22 23 23 22 21 20 20 20 21 21 20 20 19 18 18 19 20 21 23 25 28 31 35 39 42 45 46 46 45 44 42 41 39 37 33 30 26 22 22 24 28 33 35 34 30 24 20 17 15 14 15 18 20 23 25 27 26 25 23 21 20 18 16 15 14 14 11 8 6 4 5 6 6 5
5 6 9 12 15 17 19 20 21 22 22 22 21 19 16 14 13 13 13 13 12 11 10 10 11 12 14 18 20 22 24 23 22 20 19 19 19 20 20 20 19 18 18 18 18 19 20 22 25 28 31 35 38 41 43 45 45 45 45 44 43 41 39 36 33 29 25 22 21 23 28 32 33 32 27 22 18 15 13 14 16 18 22 24 26 26 25 23 22 20 19 17 15 15 15 14 11 8 5 5 5 6 6
6 7 10 14 17 18 19 20 20 21 22 22 20 18 15 13 13 13 13 13 12 11 9 10 12 13 15 18 21 23 23 22 21 19 18 19 19 19 20 19 18 17 16 16 17 18 19 22 25 28 31 35 38 41 42 43 44 44 44 44 44 43 41 39 36 32 28 24 21 21 23 28 31 32 28 23 19 15 13 13 14 17 20 23 25 26 25 24 23 22 21 19 18 17 16 16 15 12 8 6 6 6 7
7 9 12 15 17 19 20 20 20 21 21 20 19 16 14 13 13 13 13 12 12 10 9 9 11 14 17 19 21 23 24 22 20 18 18 19 19 19 18 17 16 16 16 14 14 14 16 20 24 28 32 34 37 39 41 42 43 43 43 43 43 42 42 41 38 35 31 27 23 20 20 25 29 31 30 25 20 17 14 13 15 17 19 22 24 25 25 25 24 23 22 21 20 19 18 18 18 16 12 8 6 6 7
8 10 13 16 18 20 20 20 20 20 20 19 17 16 14 13 13 13 13 12 11 10 9 9 10 13 18 20 22 24 24 22 20 19 18 17 18 19 18 16 16 17 17 16 14 12 13 18 23 27 31 33 35 37 39 41 42 42 42 41 41 41 42 42 40 38 35 30 25 22 20 23 27 31 33 29 25 20 16 15 16 17 18 20 22 24 24 24 24 23 23 22 21 20 19 18 18 18 15 11 8 6 6
9 11 14 17 18 19 19 20 20 20 20 18 16 14 13 13 13 13 13 12 10 9 9 10 11 13 17 20 23 24 25 23 21 19 19 17 16 16 17 18 18 16 14 14 14 13 13 17 22 27 30 31 33 35 38 40 40 40 40 39 39 39 40 41 42 41 39 34 29 24 20 22 25 30 34 33 30 25 20 18 18 18 18 18 20 22 23 23 23 23 22 22 21 20 19 18 18 18 17 13 10 7 6
10 13 15 18 19 19 20 20 20 20 20 17 15 13 12 12 13 13 13 12 10 9 8 10 12 14 17 20 23 24 24 23 21 19 19 18 16 16 17 19 18 14 12 12 12 13 15 16 20 25 27 29 32 35 38 40 40 40 39 37 37 37 39 40 42 42 40 37 33 28 23 21 23 27 32 34 33 29 24 21 19 18 18 18 18 19 21 22 22 22 22 21 21 20 20 19 18 18 18 16 12 9 6
11 14 16 18 19 20 21 21 20 19 18 16 14 12 12 12 13 13 13 12 10 8 8 9 12 15 18 21 23 24 24 23 22 20 18 19 20 19 15 13 13 13 13 16 15 13 11 13 19 24 24 28 32 34 35 36 38 39 38 37 36 37 37 39 41 42 41 39 36 31 25 22 22 24 28 32 32 30 26 23 20 19 18 17 17 18 19 20 21 21 21 21 21 20 20 20 20 19 19 18 15 11 8
11 13 16 18 20 20 21 20 20 18 16 15 13 12 12 13 13 13 13 11 10 8 8 9 12 15 18 21 23 24 24 23 22 21 19 18 20 21 18 15 12 11 11 14 14 13 10 11 16 21 26 25 27 29 29 30 32 35 36 36 36 36 36 38 40 41 41 41 38 34 28 24 22 22 25 29 30 29 26 22 20 19 19 18 18 17 18 19 20 20 21 21 20 20 20 20 20 20 20 19 17 14 10
12 14 17 19 20 20 20 20 19 18 16 14 13 12 12 13 13 13 12 11 10 9 8 9 12 15 19 22 23 23 23 22 22 22 22 19 18 19 21 21 18 13 10 7 6 7 9 10 13 18 23 21 22 24 22 24 26 28 33 34 35 35 36 37 38 39 40 41 39 36 32 27 24 23 24 27 28 28 25 22 20 19 19 19 18 18 18 18 19 20 21 21 20 20 20 20 20 20 20 20 19 16 13
13 16 17 19 20 20 20 20 18 16 15 14 13 12 12 13 13 13 12 11 10 8 8 10 12 15 19 22 23 24 23 22 21 20 22 20 19 18 19 20 19 17 15 10 7 5 4 8 12 16 18 18 21 23 19 21 22 24 27 30 33 35 36 37 37 38 39 39 38 37 34 29 26 24 24 26 26 26 24 21 19 18 19 19 19 18 18 18 18 19 20 20 20 20 20 19 19 19 19 20 19 18 15
14 16 18 19 20 20 20 19 17 16 14 13 12 12 12 13 14 13 12 10 9 8 8 10 13 16 19 22 23 24 24 23 21 19 17 19 21 20 18 17 17 16 15 13 11 9 5 7 9 12 16 19 18 17 20 19 20 21 23 26 29 32 34 36 37 38 39 39 38 36 34 31 27 25 25 26 26 25 23 20 18 18 18 19 19 19 18 18 18 18 19 19 20 20 19 19 19 18 18 19 19 18 17
15 17 18 20 20 20 19 18 17 16 14 12 12 12 13 13 13 13 11 10 9 8 9 11 13 17 20 22 23 24 23 22 21 20 18 18 19 20 19 18 17 16 14 12 10 9 9 8 7 9 14 20 17 14 15 16 16 17 19 22 26 30 32 34 36 38 39 39 38 37 35 32 29 26 25 26 26 25 22 20 18 17 17 18 19 19 19 18 18 18 18 18 19 19 19 18 18 18 18 18 18 18 17
15 17 19 19 20 20 19 18 16 15 13 12 12 12 13 13 13 12 11 9 8 9 10 12 15 18 21 23 24 24 23 21 21 20 20 19 17 17 19 19 18 16 15 12 10 9 8 8 7 8 12 16 19 19 14 12 13 14 15 18 23 28 30 32 34 36 38 39 39 37 35 33 31 28 27 27 26 25 23 20 17 16 16 17 18 19 19 18 18 18 17 18 18 18 18 18 18 18 18 18 18 18 18
Height
5836 5835 5834 5833 5832 5831 5830 5829 5828 5827 5826 5825 5824 5823 5822 5822 5821 5820 5819 5818 5818 5817 5816 5816 5815 5814 5814 5813 5813 5813 5812 5812 5812 5811 5811 5811 5810 5810 5810 5809 5809 5809 5809 5809 5809 5810 5810 5810 5810 5811 5811 5812 5812 5811 5811 5810 5810 5810 5810 5810 5810 5811 5812 5813 5814 5815 5815 5816 5817 5817 5818 5819 5821 5822 5823 5824 5824 5825 5826 5827 5829 5830 5832 5833 5834 5836 5837 5838 5839 5840 5841 5842 5843 5844 5845 5847 5848 5849 5850 5851 5852 5853 5854
5833 5832 5831 5830 5829 5828 5827 5826 5825 5824 5823 5822 5821 5819 5818 5818 5817 5816 5815 5814 5813 5812 5812 5811 5810 5809 5809 5808 5808 5808 5807 5807 5806 5806 5806 5805 5805 5805 5804 5804 5804 5804 5804 5804 5804 5805 5805 5805 5806 5807 5807 5808 5807 5806 5805 5805 5805 5806 5806 5806 5806 5806 5806 5808 5808 5809 5810 5811 5812 5813 5813 5814 5816 5817 5819 5820 5820 5821 5822 5823 5824 5826 5828 5829 5831 5832 5833 5834 5835 5836 5837 5838 5840 5841 5842 5843 5845 5846 5847 5848 5849 5850 5852
5830 5828 5828 5827 5825 5824 5823 5822 5821 5820 5819 5818 5817 5816 5814 5813 5812 5811 5810 5809 5808 5808 5807 5806 5805 5804 5804 5803 5803 5802 5802 5801 5801 5800 5800 5799 5799 5799 5798 5798 5798 5798 5798 5799 5799 5799 5800 5800 5801 5802 5803 5803 5803 5802 5800 5799 5799 5801 5802 5802 5802 5801 5802 5802 5803 5803 5804 5806 5807 5808 5809 5810 5811 5812 5814 5815 5816 5817 5818 5819 5820 5822 5823 5825 5826 5828 5828 5829 5831 5832 5833 5835 5836 5838 5839 5840 5841 5843 5844 5845 5846 5848 5848
5827 5825 5824 5823 5822 5821 5819 5818 5817 5816 5815 5814 5813 5811 5810 5809 5808 5806 5805 5804 5803 5802 5801 5800 5800 5799 5798 5798 5797 5796 5796 5795 5795 5794 5794 5793 5793 5792 5792 5792 5792 5792 5792 5793 5793 5793 5794 5795 5796 5797 5798 5798 5798 5797 5795 5793 5793 5795 5796 5797 5797 5797 5797 5797 5797 5797 5798 5800 5801 5803 5804 5805 5806 5807 5809 5810 5811 5813 5813 5814 5816 5817 5819 5821 5822 5823 5824 5825 5826 5828 5829 5831 5833 5834 5835 5837 5838 5839 5841 5842 5843 5844 5846
5823 5822 5820 5819 5818 5817 5815 5814 5813 5812 5810 5809 5808 5807 5805 5804 5803 5802 5800 5799 5798 5797 5795 5794 5793 5793 5792 5791 5791 5790 5789 5789 5788 5788 5787 5787 5786 5786 5786 5785 5785 5785 5786 5786 5786 5787 5787 5788 5790 5791 5793 5793 5793 5792 5790 5789 5789 5789 5790 5791 5792 5792 5793 5792 5791 5792 5792 5793 5795 5797 5798 5800 5801 5802 5804 5805 5806 5808 5809 5810 5812 5813 5814 5816 5817 5818 5819 5821 5822 5823 5825 5827 5829 5830 5832 5833 5834 5836 5837 5839 5840 5841 5843
5819 5818 5817 5815 5814 5813 5811 5810 5808 5807 5806 5804 5803 5802 5800 5799 5798 5796 5795 5794 5792 5791 5790 5789 5788 5787 5786 5785 5784 5784 5783 5782 5782 5781 5780 5780 5779 5779 5779 5779 5779 5779 5779 5779 5779 5780 5780 5781 5783 5785 5786 5786 5786 5785 5785 5785 5784 5784 5784 5784 5786 5787 5787 5787 5786 5786 5786 5787 5788 5790 5792 5794 5796 5797 5798 5800 5801 5803 5804 5805 5807 5808 5810 5811 5813 5814 5815 5816 5818 5819 5821 5823 5825 5827 5828 5829 5831 5832 5833 5835 5837 5838 5839
5816 5814 5813 5812 5810 5809 5807 5806 5804 5803 5801 5800 5798 5797 5796 5794 5793 5792 5790 5789 5787 5786 5785 5783 5782 5781 5780 5779 5778 5778 5777 5776 5775 5774 5773 5773 5772 5772 5772 5772 5772 5772 5772 5772 5773 5773 5773 5774 5776 5777 5778 5778 5778 5779 5779 5780 5779 5779 5779 5779 5780 5781 5781 5781 5781 5781 5781 5781 5782 5784 5786 5788 5790 5792 5793 5794 5796 5797 5799 5800 5802 5804 5805 5806 5808 5809 5811 5812 5814 5815 5817 5819 5821 5823 5824 5826 5827 5828 5830 5831 5833 5834 5836
5812 5811 5809 5808 5807 5805 5803 5802 5800 5799 5797 5795 5794 5792 5791 5789 5788 5786 5785 5784 5782 5781 5780 5778 5777 5776 5775 5773 5773 5772 5771 5770 5769 5768 5767 5766 5766 5765 5765 5765 5765 5765 5765 5765 5766 5766 5766 5767 5768 5769 5769 5769 5770 5772 5773 5773 5774 5774 5773 5774 5774 5775 5774 5774 5775 5775 5775 5776 5776 5777 5779 5781 5783 5785 5787 5789 5790 5792 5793 5795 5797 5798 5800 5802 5803 5805 5806 5808 5809 5811 5813 5815 5817 5819 5820 5822 5823 5824 5826 5828 5829 5831 5832
5808 5807 5805 5804 5803 5801 5799 5798 5796 5794 5793 5791 5789 5788 5786 5784 5783 5781 5780 5778 5777 5775 5774 5773 5771 5770 5769 5768 5766 5765 5764 5763 5762 5761 5759 5759 5758 5758 5758 5758 5758 5758 5758 5758 5758 5759 5759 5760 5760 5761 5760 5761 5763 5764 5765 5766 5767 5767 5768 5768 5769 5769 5768 5768 5768 5769 5770 5770 5770 5771 5772 5774 5776 5778 5781 5783 5785 5786 5788 5789 5791 5793 5795 5797 5798 5800 5802 5803 5805 5806 5808 5810 5812 5814 5816 5818 5819 5820 5822 5823 5825 5827 5828
5804 5803 5801 5799 5798 5796 5795 5793 5791 5790 5788 5786 5784 5783 5781 5779 5778 5776 5774 5773 5771 5769 5768 5766 5765 5763 5762 5761 5759 5758 5757 5755 5754 5753 5751 5750 5749 5749 5749 5748 5749 5749 5749 5750 5751 5752 5752 5752 5752 5753 5753 5754 5755 5756 5757 5758 5759 5760 5761 5762 5763 5763 5763 5762 5762 5762 5763 5764 5764 5765 5766 5767 5769 5772 5774 5777 5779 5780 5782 5784 5786 5788 5789 5791 5793 5795 5797 5798 5800 5802 5803 5805 5808 5809 5811 5813 5814 5816 5817 5819 5821 5823 5824
5800 5798 5797 5795 5793 5792 5790 5788 5786 5785 5783 5781 5779 5778 5776 5774 5772 5770 5768 5767 5765 5763 5761 5760 5758 5757 5755 5753 5752 5750 5749 5747 5746 5744 5743 5742 5740 5740 5739 5739 5739 5739 5739 5740 5742 5743 5743 5743 5744 5745 5745 5747 5748 5748 5749 5750 5751 5752 5753 5754 5755 5756 5757 5757 5756 5756 5756 5757 5758 5759 5760 5761 5762 5764 5767 5770 5772 5774 5776 5778 5780 5782 5783 5786 5788 5790 5792 5793 5795 5797 5799 5801 5803 5805 5807 5808 5810 5811 5813 5814 5816 5818 5820
5796 5794 5793 5791 5789 5787 5785 5783 5782 5780 5778 5776 5774 5772 5770 5768 5767 5765 5763 5761 5758 5757 5755 5753 5751 5749 5748 5746 5744 5743 5741 5739 5737 5735 5734 5733 5731 5730 5729 5729 5728 5728 5729 5729 5731 5732 5732 5733 5734 5736 5737 5738 5739 5740 5741 5742 5743 5743 5744 5746 5747 5748 5749 5750 5750 5750 5750 5750 5751 5752 5753 5754 5756 5757 5760 5762 5765 5768 5770 5772 5774 5776 5778 5780 5782 5784 5787 5788 5790 5792 5794 5796 5798 5800 5802 5803 5805 5807 5808 5810 5812 5813 5816
5792 5790 5788 5787 5785 5783 5781 5779 5777 5775 5773 5771 5769 5767 5765 5763 5761 5759 5757 5754 5752 5750 5748 5746 5744 5742 5740 5738 5736 5734 5732 5730 5728 5726 5725 5723 5722 5720 5719 5718 5718 5718 5718 5718 5719 5719 5720 5722 5724 5725 5727 5728 5729 5731 5732 5733 5734 5736 5736 5737 5738 5739 5741 5742 5743 5744 5744 5743 5743 5745 5746 5748 5749 5750 5752 5755 5758 5760 5763 5765 5768 5770 5772 5774 5776 5779 5781 5783 5785 5787 5789 5791 5793 5795 5797 5799 5801 5802 5803 5805 5807 5809 5811
5788 5787 5785 5783 5781 5779 5777 5775 5773 5771 5768 5766 5764 5762 5760 5758 5755 5753 5751 5748 5746 5744 5742 5739 5737 5734 5732 5730 5728 5726 5724 5721 5719 5717 5715 5713 5712 5710 5709 5708 5708 5707 5707 5707 5707 5707 5708 5709 5711 5713 5715 5717 5719 5720 5722 5723 5725 5727 5728 5729 5729 5730 5732 5733 5735 5737 5738 5737 5737 5738 5739 5741 5742 5743 5745 5747 5750 5753 5756 5758 5761 5763 5766 5768 5770 5773 5775 5778 5780 5782 5784 5786 5788 5790 5792 5794 5796 5797 5799 5800 5802 5804 5807
5785 5783 5781 5779 5777 5775 5773 5770 5768 5766 5764 5761 5759 5757 5754 5752 5750 5747 5745 5743 5740 5738 5735 5733 5730 5728 5725 5723 5720 5718 5716 5713 5711 5708 5706 5703 5702 5700 5698 5698 5697 5696 5696 5695 5695 5695 5696 5697 5698 5700 5702 5704 5707 5709 5711 5713 5715 5717 5718 5719 5720 5722 5723 5724 5726 5728 5730 5731 5731 5731 5732 5733 5735 5737 5738 5740 5742 5745 5748 5751 5754 5757 5759 5762 5764 5766 5769 5772 5774 5776 5778 5780 5783 5784 5787 5788 5790 5792 5794 5796 5798 5800 5802
5782 5779 5777 5775 5773 5771 5768 5766 5764 5761 5759 5757 5754 5752 5749 5747 5744 5742 5739 5737 5734 5732 5729 5726 5723 5721 5718 5716 5713 5711 5708 5705 5703 5700 5697 5694 5691 5689 5688 5687 5685 5684 5684 5683 5683 5683 5684 5684 5686 5687 5689 5691 5693 5696 5698 5702 5704 5706 5708 5709 5710 5712 5714 5715 5718 5719 5721 5723 5724 5725 5725 5726 5727 5729 5731 5733 5735 5738 5741 5744 5747 5750 5752 5755 5758 5760 5763 5765 5768 5770 5773 5775 5777 5779 5781 5783 5785 5787 5789 5791 5793 5795 5798
5778 5776 5773 5771 5769 5767 5764 5762 5759 5757 5754 5752 5750 5747 5744 5742 5739 5737 5734 5732 5729 5726 5723 5720 5718 5714 5711 5708 5706 5703 5699 5697 5694 5691 5688 5685 5682 5679 5677 5675 5674 5673 5672 5671 5671 5671 5671 5672 5673 5674 5676 5677 5679 5682 5685 5688 5692 5695 5697 5698 5700 5702 5704 5706 5708 5710 5712 5714 5715 5717 5718 5719 5720 5722 5724 5726 5728 5730 5733 5736 5739 5742 5745 5748 5751 5753 5756 5759 5762 5764 5767 5769 5772 5774 5776 5778 5780 5782 5784 5787 5788 5791 5793
5774 5772 5769 5767 5765 5762 5760 5758 5755 5753 5750 5748 5745 5743 5740 5738 5735 5732 5729 5727 5723 5721 5718 5714 5711 5708 5704 5701 5698 5694 5691 5688 5685 5682 5679 5676 5672 5669 5666 5664 5662 5660 5659 5658 5658 5658 5658 5659 5660 5661 5662 5664 5666 5668 5671 5674 5678 5682 5684 5686 5688 5691 5693 5695 5698 5700 5702 5704 5707 5708 5710 5712 5713 5714 5716 5719 5721 5723 5724 5727 5730 5734 5737 5740 5743 5747 5750 5752 5755 5758 5761 5763 5766 5768 5771 5773 5775 5777 5779 5782 5783 5786 5788
5770 5768 5765 5763 5760 5758 5756 5753 5751 5748 5746 5744 5741 5739 5736 5733 5730 5727 5724 5721 5718 5714 5711 5708 5704 5701 5697 5693 5689 5685 5681 5678 5674 5671 5668 5665 5662 5659 5655 5653 5650 5648 5647 5646 5645 5644 5645 5645 5646 5647 5648 5650 5652 5654 5657 5660 5664 5667 5670 5673 5676 5679 5682 5684 5687 5690 5692 5695 5697 5699 5702 5704 5706 5707 5709 5710 5712 5714 5717 5719 5722 5725 5729 5733 5736 5739 5743 5746 5748 5751 5754 5757 5760 5763 5765 5768 5770 5772 5774 5776 5778 5781 5783
5766 5764 5762 5759 5756 5754 5751 5749 5746 5744 5742 5739 5736 5734 5731 5728 5725 5722 5718 5715 5711 5707 5703 5700 5696 5692 5688 5683 5679 5675 5671 5667 5663 5660 5656 5653 5650 5647 5644 5641 5638 5636 5634 5633 5632 5631 5631 5631 5632 5633 5634 5636 5638 5640 5643 5646 5649 5652 5655 5658 5662 5666 5669 5673 5676 5678 5681 5684 5687 5690 5693 5695 5697 5699 5701 5703 5704 5706 5708 5711 5714 5717 5721 5725 5728 5732 5735 5738 5742 5744 5747 5750 5753 5756 5759 5762 5764 5766 5769 5771 5773 5775 5778
5763 5760 5758 5755 5753 5750 5747 5744 5742 5739 5736 5733 5730 5727 5724 5722 5718 5714 5711 5708 5703 5699 5695 5691 5686 5682 5678 5673 5668 5664 5659 5655 5652 5648 5644 5640 5637 5634 5631 5628 5626 5624 5622 5620 5619 5618 5618 5617 5618 5618 5619 5621 5623 5625 5628 5632 5635 5638 5640 5643 5647 5651 5656 5660 5663 5666 5669 5673 5676 5679 5683 5686 5688 5690 5693 5694 5696 5698 5700 5703 5706 5709 5713 5716 5720 5724 5728 5731 5734 5738 5740 5743 5747 5750 5753 5756 5758 5761 5763 5766 5768 5770 5772
5759 5756 5754 5751 5748 5746 5743 5740 5737 5734 5730 5728 5724 5720 5717 5714 5710 5707 5703 5699 5695 5690 5686 5681 5676 5671 5667 5662 5657 5652 5647 5643 5639 5635 5631 5627 5624 5621 5618 5615 5613 5611 5609 5608 5606 5605 5604 5603 5603 5604 5605 5606 5608 5611 5614 5617 5620 5622 5625 5628 5632 5637 5641 5646 5650 5654 5658 5661 5664 5668 5672 5675 5678 5681 5684 5686 5688 5690 5692 5695 5698 5701 5704 5708 5712 5716 5719 5723 5727 5730 5733 5737 5740 5743 5746 5749 5752 5755 5758 5760 5763 5765 5767
5755 5752 5749 5747 5744 5741 5738 5735 5732 5728 5725 5722 5718 5714 5710 5707 5703 5698 5694 5690 5686 5681 5676 5671 5666 5661 5655 5650 5645 5639 5634 5629 5625 5621 5617 5613 5610 5607 5605 5602 5599 5598 5596 5595 5593 5592 5591 5590 5589 5590 5591 5592 5593 5595 5598 5602 5605 5607 5610 5613 5617 5621 5626 5630 5635 5640 5645 5649 5653 5656 5660 5663 5667 5671 5674 5678 5680 5683 5684 5687 5689 5693 5696 5699 5703 5707 5711 5715 5719 5723 5726 5729 5733 5736 5740 5743 5746 5749 5752 5755 5757 5760 5762
5750 5748 5745 5742 5739 5736 5733 5730 5727 5723 5720 5716 5712 5708 5703 5699 5696 5691 5686 5680 5676 5671 5666 5660 5654 5649 5643 5638 5632 5626 5621 5617 5612 5607 5603 5599 5596 5593 5591 5588 5586 5584 5583 5582 5580 5579 5578 5577 5576 5576 5577 5577 5578 5580 5583 5587 5589 5592 5594 5598 5602 5606 5610 5615 5620 5626 5631 5635 5640 5644 5648 5652 5656 5660 5664 5668 5671 5674 5677 5679 5681 5684 5687 5691 5694 5698 5703 5707 5711 5715 5718 5722 5725 5729 5733 5736 5740 5743 5746 5749 5752 5754 5757
5746 5743 5740 5738 5734 5731 5728 5725 5721 5718 5714 5710 5707 5702 5697 5692 5688 5684 5678 5672 5666 5661 5655 5649 5643 5637 5631 5625 5619 5613 5608 5603 5599 5594 5589 5586 5583 5580 5577 5574 5573 5571 5569 5568 5567 5566 5565 5564 5563 5563 5563 5563 5564 5566 5568 5571 5574 5576 5579 5583 5586 5590 5595 5599 5605 5610 5616 5622 5627 5632 5636 5640 5645 5649 5654 5658 5662 5665 5668 5671 5673 5676 5679 5682 5686 5690 5694 5698 5703 5707 5710 5714 5718 5722 5726 5729 5733 5736 5739 5743 5745 5748 5751
5741 5738 5735 5732 5729 5726 5723 5719 5716 5712 5708 5704 5700 5696 5691 5685 5680 5675 5670 5664 5657 5650 5644 5638 5631 5625 5618 5613 5607 5601 5595 5590 5586 5582 5577 5573 5570 5567 5564 5562 5560 5558 5557 5556 5555 5554 5553 5552 5551 5550 5550 5550 5550 5552 5554 5557 5559 5561 5564 5567 5571 5575 5579 5584 5589 5595 5601 5607 5613 5618 5623 5628 5633 5638 5643 5648 5652 5656 5659 5663 5665 5668 5670 5674 5677 5681 5685 5690 5694 5698 5702 5706 5711 5715 5719 5722 5726 5729 5733 5736 5739 5742 5745
5737 5734 5731 5727 5724 5721 5717 5713 5710 5706 5702 5698 5693 5688 5684 5678 5672 5666 5661 5655 5648 5640 5633 5627 5619 5613 5607 5600 5595 5589 5583 5578 5574 5570 5565 5561 5558 5555 5553 5550 5548 5547 5545 5544 5543 5542 5541 5540 5539 5538 5538 5538 5538 5539 5540 5543 5544 5547 5549 5553 5556 5560 5564 5569 5574 5580 5586 5592 5598 5604 5610 5616 5621 5626 5631 5636 5641 5646 5650 5653 5657 5660 5662 5665 5668 5672 5676 5680 5685 5690 5694 5698 5703 5707 5711 5715 5718 5722 5726 5729 5733 5736 5739
5733 5729 5726 5723 5719 5715 5711 5708 5704 5700 5695 5691 5686 5681 5675 5671 5664 5657 5650 5644 5637 5630 5623 5616 5608 5602 5595 5589 5583 5577 5572 5567 5563 5559 5555 5551 5548 5545 5542 5540 5538 5536 5534 5533 5532 5531 5530 5529 5528 5528 5527 5526 5526 5527 5528 5529 5531 5533 5535 5538 5542 5545 5550 5554 5559 5565 5571 5577 5583 5589 5596 5602 5608 5613 5619 5624 5629 5634 5639 5644 5648 5651 5654 5656 5659 5663 5667 5672 5676 5680 5685 5690 5694 5698 5703 5707 5711 5715 5719 5722 5726 5729 5733
5728 5725 5721 5718 5714 5710 5706 5702 5698 5693 5689 5684 5678 5672 5667 5661 5655 5648 5640 5633 5626 5619 5612 5605 5598 5591 5584 5578 5572 5567 5562 5557 5553 5549 5545 5542 5538 5535 5532 5530 5528 5526 5524 5523 5521 5520 5519 5518 5518 5517 5516 5515 5515 5515 5516 5517 5518 5520 5522 5524 5527 5531 5535 5540 5545 5550 5556 5562 5568 5574 5581 5588 5594 5601 5606 5612 5617 5622 5628 5633 5637 5641 5645 5648 5651 5654 5658 5663 5667 5672 5676 5681 5685 5690 5694 5699 5703 5708 5711 5715 5719 5723 5727
5723 5720 5717 5713 5709 5705 5701 5696 5691 5687 5682 5677 5671 5664 5658 5652 5645 5638 5630 5623 5616 5608 5601 5594 5588 5581 5574 5568 5563 5557 5552 5548 5544 5541 5537 5533 5530 5526 5523 5520 5518 5515 5513 5512 5510 5508 5508 5507 5506 5505 5505 5504 5504 5504 5504 5505 5507 5508 5510 5511 5514 5517 5521 5526 5530 5535 5541 5547 5553 5559 5566 5573 5580 5587 5593 5599 5605 5610 5616 5621 5626 5631 5634 5639 5642 5645 5649 5653 5658 5663 5667 5672 5676 5681 5685 5690 5695 5700 5704 5708 5712 5716 5720
5719 5715 5711 5708 5703 5699 5695 5691 5686 5680 5675 5669 5663 5656 5649 5642 5635 5628 5619 5612 5605 5598 5590 5584 5577 5571 5565 5559 5554 5548 5543 5539 5536 5532 5528 5524 5521 5517 5513 5510 5507 5504 5502 5500 5498 5497 5495 5495 5494 5493 5493 5493 5492 5492 5492 5493 5494 5497 5498 5499 5501 5504 5508 5512 5516 5521 5526 5532 5538 5545 5552 5559 5566 5573 5580 5586 5592 5597 5603 5608 5614 5619 5624 5629 5633 5637 5640 5644 5649 5653 5657 5662 5667 5672 5677 5682 5687 5692 5696 5701 5705 5709 5713
5714 5710 5707 5703 5698 5694 5689 5684 5679 5673 5668 5661 5655 5648 5640 5633 5625 5618 5610 5602 5594 5588 5581 5574 5568 5562 5557 5551 5546 5540 5536 5531 5527 5523 5519 5515 5512 5508 5503 5500 5497 5493 5490 5488 5487 5485 5483 5482 5481 5481 5480 5480 5480 5480 5480 5481 5483 5484 5487 5488 5489 5492 5495 5499 5503 5508 5513 5519 5525 5531 5538 5544 5552 5559 5566 5573 5578 5584 5590 5596 5602 5607 5613 5618 5623 5628 5632 5635 5639 5643 5648 5652 5658 5663 5668 5673 5678 5683 5688 5693 5698 5702 5707
5709 5705 5701 5697 5693 5688 5683 5678 5672 5666 5660 5653 5647 5639 5631 5623 5616 5608 5600 5593 5585 5578 5571 5565 5559 5553 5548 5543 5538 5533 5528 5523 5518 5514 5510 5506 5502 5498 5493 5490 5486 5482 5479 5477 5474 5472 5470 5469 5468 5468 5467 5467 5467 5467 5467 5468 5470 5472 5474 5477 5478 5480 5483 5486 5491 5496 5501 5506 5512 5518 5524 5530 5537 5544 5552 5558 5564 5571 5577 5583 5588 5595 5601 5607 5613 5618 5623 5626 5629 5633 5638 5643 5648 5654 5659 5664 5670 5675 5680 5686 5690 5695 5699
5704 5700 5696 5692 5687 5682 5677 5671 5665 5658 5652 5645 5638 5630 5623 5614 5607 5599 5591 5584 5577 5569 5563 5557 5552 5546 5541 5536 5531 5525 5520 5515 5510 5506 5501 5497 5492 5488 5484 5479 5475 5471 5468 5465 5463 5460 5458 5457 5456 5455 5453 5453 5454 5454 5454 5456 5458 5460 5462 5464 5467 5469 5472 5475 5479 5483 5489 5494 5499 5505 5510 5517 5523 5530 5537 5544 5551 5557 5563 5569 5575 5581 5588 5595 5602 5608 5613 5617 5620 5624 5628 5634 5639 5645 5650 5656 5662 5667 5672 5678 5683 5688 5693
5699 5695 5690 5686 5681 5675 5670 5664 5658 5651 5643 5636 5629 5622 5614 5606 5598 5590 5583 5575 5568 5562 5555 5550 5544 5539 5533 5528 5523 5518 5513 5508 5503 5498 5493 5488 5483 5478 5474 5470 5465 5461 5458 5455 5452 5449 5447 5446 5444 5442 5441 5441 5441 5442 5442 5443 5445 5447 5449 5452 5455 5458 5461 5464 5468 5473 5478 5483 5488 5493 5498 5503 5509 5516 5523 5530 5537 5543 5550 5556 5562 5568 5576 5583 5590 5597 5603 5608 5612 5616 5620 5625 5630 5636 5642 5647 5653 5658 5664 5669 5675 5680 5685
5693 5689 5685 5680 5674 5669 5663 5656 5650 5643 5636 5628 5620 5613 5605 5597 5589 5582 5575 5567 5561 5554 5548 5543 5538 5532 5527 5521 5516 5511 5505 5500 5495 5489 5484 5479 5474 5469 5465 5460 5456 5452 5448 5445 5442 5439 5437 5435 5433 5431 5430 5430 5430 5430 5430 5431 5433 5435 5437 5440 5443 5447 5450 5453 5458 5462 5467 5472 5476 5481 5486 5491 5497 5503 5509 5516 5523 5530 5537 5543 5549 5557 5563 5571 5579 5586 5592 5598 5603 5607 5611 5616 5621 5627 5632 5638 5644 5650 5656 5661 5667 5672 5677
5688 5683 5678 5673 5668 5662 5656 5649 5642 5635 5627 5619 5611 5603 5596 5588 5580 5573 5567 5560 5553 5547 5542 5536 5531 5525 5520 5514 5509 5503 5498 5492 5487 5481 5476 5471 5466 5461 5456 5452 5447 5443 5439 5436 5432 5430 5428 5426 5424 5422 5421 5420 5419 5419 5420 5421 5422 5423 5425 5428 5431 5435 5439 5443 5447 5452 5456 5461 5465 5470 5475 5479 5485 5490 5496 5503 5509 5516 5523 5530 5538 5545 5552 5560 5568 5574 5581 5587 5593 5598 5603 5607 5612 5617 5623 5629 5635 5641 5647 5653 5658 5664 5669
5683 5677 5672 5667 5661 5655 5649 5642 5634 5627 5619 5611 5603 5595 5588 5580 5572 5565 5559 5553 5546 5540 5535 5529 5524 5518 5513 5507 5501 5495 5489 5484 5478 5473 5467 5462 5458 5453 5448 5443 5439 5435 5431 5428 5424 5422 5420 5417 5415 5414 5413 5412 5411 5411 5411 5411 5412 5413 5414 5417 5420 5424 5428 5432 5437 5441 5445 5449 5454 5459 5463 5468 5473 5478 5484 5490 5497 5503 5511 5518 5526 5533 5541 5549 5556 5563 5569 5576 5582 5588 5593 5598 5603 5608 5613 5620 5626 5632 5638 5644 5650 5656 5662
5677 5672 5666 5660 5654 5648 5641 5634 5627 5619 5611 5603 5595 5587 5579 5572 5565 5558 5551 5545 5539 5533 5528 5522 5517 5511 5506 5500 5494 5488 5482 5476 5470 5464 5459 5454 5449 5445 5440 5436 5432 5428 5424 5420 5417 5414 5412 5409 5407 5406 5404 5403 5403 5403 5403 5403 5404 5404 5405 5407 5410 5413 5417 5421 5425 5429 5433 5438 5443 5448 5453 5458 5462 5467 5473 5478 5485 5492 5499 5507 5514 5522 5529 5537 5543 5550 5557 5564 5571 5578 5584 5589 5594 5599 5605 5611 5617 5623 5630 5636 5642 5648 5654
5671 5666 5660 5653 5647 5641 5634 5626 5619 5611 5603 5595 5587 5579 5571 5564 5557 5550 5544 5538 5533 5527 5521 5515 5510 5504 5498 5493 5487 5481 5474 5468 5462 5456 5451 5446 5442 5437 5433 5429 5425 5420 5417 5413 5409 5406 5403 5401 5399 5398 5396 5396 5395 5396 5396 5396 5396 5396 5396 5398 5400 5403 5406 5410 5414 5418 5422 5426 5431 5437 5442 5447 5452 5457 5462 5468 5473 5480 5487 5494 5502 5509 5517 5523 5530 5537 5544 5551 5559 5567 5574 5581 5586 5591 5596 5603 5609 5615 5622 5628 5634 5640 5647
5665 5659 5653 5647 5640 5633 5627 5619 5611 5603 5595 5587 5579 5571 5563 5556 5550 5544 5538 5532 5526 5520 5514 5508 5503 5497 5491 5485 5479 5473 5467 5460 5455 5449 5444 5439 5435 5430 5426 5422 5418 5413 5409 5406 5402 5399 5396 5393 5391 5389 5388 5388 5388 5388 5388 5388 5388 5388 5388 5389 5391 5393 5396 5399 5403 5407 5411 5415 5420 5426 5432 5437 5442 5447 5452 5457 5462 5468 5475 5482 5489 5496 5503 5510 5517 5523 5531 5539 5548 5556 5564 5572 5578 5584 5589 5594 5601 5607 5613 5620 5627 5633 5639
5659 5653 5646 5640 5633 5626 5619 5611 5603 5595 5587 5579 5571 5563 5556 5549 5543 5537 5531 5526 5520 5514 5508 5502 5496 5489 5484 5478 5471 5465 5459 5453 5448 5443 5437 5433 5428 5423 5419 5415 5411 5407 5403 5399 5395 5392 5388 5385 5383 5381 5379 5379 5379 5379 5379 5379 5379 5379 5380 5381 5382 5384 5387 5390 5393 5396 5400 5405 5410 5416 5421 5427 5432 5437 5442 5447 5452 5458 5463 5469 5476 5483 5490 5498 5504 5511 5520 5528 5537 5546 5555 5563 5571 5577 5582 5587 5592 5598 5605 5612 5618 5625 5631
5653 5647 5640 5633 5626 5618 5611 5603 5596 5588 5580 5572 5564 5556 5549 5543 5536 5530 5524 5519 5514 5508 5502 5496 5490 5483 5476 5470 5463 5457 5452 5446 5441 5436 5431 5426 5422 5418 5413 5409 5405 5401 5397 5393 5388 5384 5381 5377 5375 5373 5371 5370 5370 5370 5370 5370 5370 5370 5371 5371 5373 5375 5378 5380 5383 5386 5390 5395 5400 5405 5411 5417 5423 5427 5432 5437 5442 5448 5453 5459 5465 5472 5479 5486 5493 5501 5509 5518 5528 5537 5546 5554 5562 5568 5573 5578 5584 5590 5596 5603 5609 5616 5622
5647 5641 5634 5627 5620 5612 5604 5596 5588 5581 5573 5565 5557 5550 5543 5536 5530 5524 5518 5513 5508 5502 5496 5490 5484 5477 5470 5463 5456 5449 5444 5438 5433 5429 5425 5420 5416 5412 5407 5403 5399 5394 5390 5386 5382 5378 5373 5370 5367 5364 5363 5362 5361 5361 5361 5361 5361 5360 5360 5362 5363 5366 5368 5371 5373 5376 5380 5385 5390 5395 5401 5407 5413 5418 5423 5428 5434 5439 5444 5449 5455 5462 5468 5475 5483 5491 5500 5509 5518 5528 5536 5545 5552 5559 5565 5570 5575 5581 5587 5593 5600 5606 5613
5641 5634 5627 5620 5613 5605 5597 5589 5581 5573 5566 5558 5551 5543 5537 5530 5524 5518 5512 5507 5501 5496 5490 5484 5478 5472 5464 5457 5449 5442 5436 5431 5426 5422 5418 5414 5410 5406 5402 5398 5393 5388 5384 5380 5376 5371 5367 5363 5359 5357 5355 5353 5353 5352 5351 5351 5351 5350 5350 5352 5354 5356 5359 5361 5364 5368 5372 5376 5380 5385 5391 5397 5403 5409 5414 5419 5424 5429 5434 5439 5445 5452 5458 5466 5474 5483 5492 5502 5510 5519 5527 5535 5543 5549 5556 5562 5567 5572 5577 5583 5590 5597 5603
5635 5628 5621 5613 5606 5598 5590 5582 5574 5567 5559 5552 5544 5537 5531 5524 5518 5513 5507 5501 5495 5489 5484 5478 5473 5466 5459 5452 5444 5436 5429 5424 5420 5416 5412 5408 5404 5400 5396 5392 5388 5383 5378 5374 5369 5365 5361 5357 5353 5349 5347 5346 5345 5343 5342 5341 5340 5340 5341 5342 5343 5346 5349 5352 5355 5359 5363 5367 5371 5376 5381 5387 5392 5398 5404 5409 5414 5418 5423 5429 5435 5442 5449 5457 5466 5475 5485 5493 5502 5510 5517 5525 5532 5539 5546 5552 5558 5563 5568 5574 5580 5588 5595
5629 5622 5615 5608 5599 5591 5583 5576 5568 5560 5553 5546 5538 5531 5524 5518 5512 5507 5501 5495 5489 5483 5478 5473 5467 5460 5454 5447 5439 5431 5424 5418 5413 5410 5406 5403 5399 5395 5391 5387 5382 5378 5373 5368 5363 5359 5355 5350 5346 5342 5340 5338 5337 5334 5333 5331 5330 5330 5331 5332 5333 5336 5340 5343 5346 5350 5353 5358 5362 5366 5371 5376 5382 5387 5393 5399 5404 5409 5414 5419 5425 5433 5440 5449 5458 5467 5476 5484 5491 5499 5506 5513 5520 5527 5534 5541 5547 5553 5558 5565 5572 5579 5587
5623 5616 5609 5601 5593 5585 5577 5569 5561 5554 5547 5540 5533 5526 5519 5513 5507 5501 5495 5489 5484 5478 5472 5467 5461 5454 5448 5442 5435 5427 5419 5413 5408 5404 5400 5396 5393 5390 5387 5382 5378 5373 5369 5364 5358 5353 5349 5344 5339 5336 5333 5331 5329 5326 5324 5322 5321 5321 5321 5322 5324 5327 5330 5333 5336 5340 5344 5348 5352 5357 5362 5366 5371 5377 5383 5388 5394 5399 5405 5411 5417 5425 5433 5442 5450 5458 5466 5473 5480 5487 5494 5501 5508 5515 5523 5530 5538 5545 5551 5557 5564 5572 5579
5617 5610 5602 5595 5587 5579 5571 5563 5555 5548 5541 5534 5528 5521 5514 5508 5502 5495 5489 5483 5478 5472 5466 5461 5455 5449 5442 5435 5429 5422 5415 5408 5403 5398 5395 5391 5387 5384 5381 5378 5374 5369 5365 5360 5354 5349 5344 5339 5334 5330 5327 5325 5322 5319 5316 5314 5313 5313 5313 5314 5316 5318 5321 5323 5327 5331 5334 5339 5343 5348 5352 5356 5361 5366 5372 5378 5384 5389 5396 5403 5411 5419 5427 5435 5442 5449 5456 5463 5470 5477 5484 5491 5498 5506 5514 5523 5531 5538 5545 5551 5558 5564 5571
5611 5604 5596 5588 5581 5573 5565 5558 5550 5543 5536 5529 5522 5516 5509 5503 5496 5490 5484 5478 5471 5466 5460 5454 5449 5444 5438 5430 5423 5416 5409 5403 5398 5393 5389 5385 5381 5377 5373 5371 5368 5365 5362 5357 5352 5346 5341 5335 5329 5325 5322 5319 5316 5313 5310 5308 5307 5306 5306 5308 5309 5311 5313 5316 5319 5322 5326 5330 5335 5339 5343 5347 5352 5357 5363 5368 5374 5381 5389 5397 5406 5415 5423 5429 5435 5441 5448 5454 5462 5469 5476 5483 5491 5499 5507 5516 5524 5532 5539 5545 5551 5557 5564
5605 5598 5590 5583 5575 5567 5560 5552 5545 5538 5531 5523 5517 5510 5504 5498 5491 5485 5479 5473 5467 5461 5455 5450 5444 5438 5433 5427 5419 5412 5405 5398 5392 5388 5383 5378 5375 5371 5367 5363 5361 5359 5357 5354 5350 5345 5340 5333 5327 5321 5317 5314 5311 5308 5305 5303 5302 5301 5301 5302 5303 5304 5306 5309 5312 5314 5318 5323 5327 5331 5336 5340 5345 5350 5356 5362 5368 5376 5385 5394 5403 5412 5418 5423 5428 5434 5440 5447 5454 5461 5468 5476 5483 5491 5499 5508 5516 5523 5530 5537 5543 5549 5556
5599 5591 5584 5576 5569 5562 5554 5547 5539 5532 5526 5519 5512 5506 5499 5493 5487 5481 5475 5469 5463 5457 5451 5445 5439 5433 5427 5422 5415 5408 5401 5394 5388 5382 5378 5373 5369 5366 5363 5358 5354 5351 5348 5347 5346 5343 5339 5333 5325 5318 5313 5310 5308 5305 5302 5299 5298 5297 5296 5297 5298 5299 5301 5303 5305 5308 5312 5317 5321 5326 5331 5336 5342 5347 5352 5358 5366 5374 5383 5392 5400 5407 5412 5416 5421 5426 5433 5439 5446 5452 5459 5466 5473 5481 5489 5497 5505 5513 5520 5527 5534 5541 5547
5593 5586 5578 5571 5563 5556 5548 5541 5534 5527 5520 5514 5508 5502 5496 5489 5483 5477 5470 5464 5458 5452 5445 5439 5434 5428 5422 5417 5411 5405 5397 5390 5384 5378 5374 5369 5365 5360 5357 5353 5349 5345 5342 5339 5337 5336 5334 5331 5324 5317 5311 5307 5304 5302 5299 5297 5295 5293 5293 5293 5294 5295 5296 5298 5301 5303 5308 5311 5316 5320 5326 5332 5338 5344 5350 5357 5364 5372 5380 5388 5395 5400 5404 5408 5413 5418 5424 5430 5437 5443 5450 5457 5464 5471 5479 5487 5494 5502 5510 5518 5525 5532 5538
5587 5580 5573 5565 5558 5551 5543 5536 5529 5522 5515 5509 5503 5498 5492 5485 5479 5473 5466 5459 5453 5447 5441 5434 5428 5423 5417 5412 5407 5402 5395 5388 5381 5375 5370 5365 5361 5357 5352 5348 5345 5342 5338 5335 5331 5328 5327 5326 5323 5317 5310 5305 5302 5300 5297 5294 5292 5291 5290 5290 5290 5291 5293 5294 5297 5299 5303 5306 5310 5315 5320 5326 5332 5338 5346 5353 5360 5368 5376 5383 5388 5392 5395 5399 5404 5410 5416 5422 5428 5435 5441 5448 5455 5463 5471 5478 5486 5493 5502 5510 5517 5524 5531
5582 5574 5567 5560 5553 5545 5538 5531 5524 5518 5511 5505 5499 5493 5487 5482 5475 5469 5463 5456 5449 5443 5436 5430 5423 5417 5412 5406 5402 5397 5392 5386 5379 5373 5367 5362 5358 5354 5349 5344 5340 5336 5333 5331 5328 5325 5322 5320 5320 5317 5311 5304 5300 5298 5296 5293 5291 5289 5288 5288 5288 5288 5290 5291 5293 5296 5298 5302 5305 5310 5315 5320 5326 5333 5340 5347 5354 5362 5369 5375 5379 5383 5387 5392 5397 5403 5408 5415 5421 5427 5434 5441 5448 5456 5463 5471 5478 5486 5493 5501 5508 5515 5522
5577 5570 5562 5555 5548 5540 5533 5527 5520 5513 5507 5501 5495 5489 5483 5478 5471 5465 5458 5451 5444 5438 5431 5425 5419 5413 5407 5402 5397 5392 5388 5383 5377 5371 5365 5360 5355 5351 5347 5343 5338 5333 5328 5326 5324 5322 5319 5317 5316 5315 5312 5305 5300 5296 5294 5292 5290 5288 5287 5286 5286 5286 5287 5288 5290 5292 5294 5298 5302 5306 5311 5316 5321 5328 5334 5340 5347 5354 5361 5366 5371 5375 5380 5385 5391 5397 5403 5409 5415 5421 5428 5435 5442 5449 5456 5463 5470 5477 5484 5492 5499 5506 5512
5573 5565 5558 5550 5543 5536 5529 5523 5516 5510 5503 5497 5491 5485 5479 5473 5467 5460 5453 5447 5440 5433 5427 5421 5415 5409 5403 5397 5392 5388 5383 5379 5374 5368 5363 5358 5353 5349 5345 5341 5338 5334 5330 5326 5322 5319 5316 5314 5313 5311 5310 5307 5302 5297 5293 5291 5289 5288 5286 5285 5285 5285 5285 5286 5287 5289 5291 5294 5298 5303 5307 5312 5318 5323 5328 5334 5340 5347 5353 5358 5363 5368 5373 5379 5385 5392 5398 5404 5410 5416 5423 5429 5436 5442 5448 5455 5461 5468 5475 5482 5489 5496 5503
5568 5561 5553 5546 5538 5532 5525 5518 5512 5506 5500 5494 5488 5481 5475 5469 5463 5457 5450 5444 5437 5430 5423 5416 5410 5405 5399 5393 5388 5383 5379 5375 5370 5366 5361 5357 5352 5348 5343 5339 5336 5332 5329 5325 5322 5318 5314 5311 5309 5308 5307 5306 5304 5299 5295 5292 5289 5287 5286 5285 5284 5284 5284 5284 5285 5287 5289 5292 5295 5299 5303 5308 5313 5318 5323 5329 5335 5340 5346 5351 5357 5362 5368 5374 5380 5386 5393 5399 5405 5411 5417 5423 5429 5435 5440 5446 5452 5459 5466 5473 5480 5487 5494
5563 5556 5548 5541 5534 5528 5521 5515 5508 5503 5497 5490 5484 5478 5472 5465 5459 5453 5447 5440 5434 5427 5420 5413 5407 5401 5395 5389 5384 5379 5375 5371 5367 5363 5359 5355 5350 5346 5342 5338 5334 5331 5328 5324 5321 5318 5315 5312 5308 5306 5304 5303 5302 5300 5297 5293 5290 5288 5286 5285 5284 5283 5283 5283 5284 5285 5287 5290 5293 5296 5300 5305 5309 5314 5319 5324 5330 5335 5340 5346 5351 5357 5363 5368 5374 5380 5386 5392 5398 5404 5410 5415 5421 5426 5431 5437 5443 5450 5457 5464 5471 5477 5484
5559 5552 5544 5537 5530 5523 5517 5511 5505 5499 5493 5487 5481 5474 5468 5462 5456 5449 5443 5437 5430 5423 5417 5410 5403 5397 5392 5386 5381 5376 5372 5367 5363 5359 5356 5352 5348 5344 5341 5337 5333 5330 5327 5324 5321 5318 5315 5312 5309 5306 5303 5301 5299 5298 5297 5295 5292 5289 5287 5285 5284 5283 5283 5283 5283 5285 5286 5288 5291 5294 5298 5301 5306 5310 5315 5320 5325 5330 5335 5340 5346 5351 5356 5361 5366 5372 5377 5382 5388 5393 5399 5405 5411 5416 5422 5428 5435 5442 5448 5455 5461 5468 5476
5555 5548 5540 5533 5527 5520 5513 5507 5501 5495 5489 5483 5478 5471 5465 5459 5453 5447 5440 5434 5427 5420 5413 5407 5400 5394 5388 5383 5378 5373 5368 5364 5360 5356 5352 5349 5345 5342 5339 5336 5332 5329 5326 5323 5320 5318 5315 5312 5309 5307 5304 5301 5299 5297 5296 5294 5292 5290 5288 5286 5284 5283 5283 5283 5283 5284 5285 5287 5289 5292 5295 5299 5303 5307 5312 5316 5321 5325 5330 5335 5340 5345 5349 5354 5359 5363 5368 5373 5378 5383 5389 5395 5401 5407 5413 5420 5427 5433 5439 5446 5452 5459 5469